Wind_Speed
12 10 9 9 10 9 11 11 11 9 7 6 4 5 7 6 1 1 6 15 13 12 14 17 25 22 21 17 14 12 8 10 12 24 29 23 17 10 8 9 11 11 14
14 13 11 11 11 10 10 10 10 9 6 6 3 3 5 7 4 8 10 14 11 9 12 17 28 21 20 18 14 13 10 14 10 16 21 19 15 12 8 14 10 14 15
16 15 15 14 14 12 11 12 10 11 8 6 5 2 4 5 7 13 12 13 13 12 11 14 23 25 23 20 23 16 11 19 19 17 20 24 20 18 21 17 21 15 8
17 17 17 18 17 16 13 13 12 11 11 8 5 5 2 2 3 9 10 12 13 14 12 14 19 19 19 22 20 14 11 17 17 16 15 12 21 19 14 13 13 9 10
13 15 19 22 19 18 17 14 13 11 12 11 7 7 5 2 5 10 10 9 9 15 10 13 22 21 19 18 19 11 9 8 11 18 18 14 20 14 16 15 11 10 12
17 17 18 19 20 19 18 16 14 12 11 12 11 9 8 7 8 9 15 11 11 15 16 19 22 19 19 24 18 15 10 12 10 14 18 16 14 15 12 12 10 11 11
23 23 22 20 19 19 19 16 15 14 12 12 13 12 11 10 8 9 16 18 12 10 19 22 23 24 21 16 16 19 17 15 12 12 17 20 18 9 12 10 13 15 14
25 24 24 23 21 21 19 17 15 15 14 13 13 14 13 13 9 11 17 18 18 17 19 18 23 25 24 24 23 18 19 14 16 13 13 11 11 10 12 13 17 16 13
20 21 22 22 23 22 20 18 16 14 15 15 11 14 15 15 13 10 12 21 18 17 20 18 22 21 26 21 19 21 13 17 13 10 8 10 14 11 13 16 14 14 11
16 16 16 17 19 20 20 17 15 13 14 15 12 14 16 17 15 11 8 17 19 22 17 22 20 22 23 21 24 20 18 16 13 11 11 10 12 15 17 19 18 14 15
7 7 11 13 14 15 15 14 13 10 9 13 14 15 16 15 15 16 15 16 15 18 22 23 25 31 28 25 23 22 21 15 13 13 15 17 18 19 16 14 15 15 16
8 6 5 4 4 7 10 12 17 15 20 25 18 16 15 22 14 10 14 14 15 13 15 17 21 20 21 25 25 20 20 20 18 19 19 18 16 17 17 17 16 17 16
5 6 7 8 8 9 11 13 15 17 16 20 21 19 24 22 17 9 12 15 17 17 19 21 20 25 24 23 22 22 21 20 19 15 11 11 13 15 17 19 18 18 16
8 9 9 9 10 13 15 16 16 14 15 17 19 21 20 20 20 15 14 16 19 25 27 26 26 26 29 24 23 23 25 26 25 21 19 15 14 14 15 17 19 19 18
13 14 14 14 14 13 12 12 14 17 18 16 13 17 18 17 19 23 22 20 25 24 34 35 36 35 34 32 34 31 27 25 27 24 23 24 19 15 16 18 20 21 19
19 22 24 25 25 24 22 21 18 17 17 18 18 17 19 20 20 22 25 29 31 31 31 37 39 39 37 35 37 34 31 32 28 30 28 23 23 19 17 18 20 22 21
22 22 23 25 26 28 28 26 25 25 23 21 21 21 21 22 21 22 21 25 32 31 37 34 37 39 37 37 37 38 29 27 30 24 27 27 27 27 25 22 21 22 24
22 23 23 23 24 26 26 26 25 25 24 24 24 24 22 22 21 20 21 17 25 28 36 39 40 39 35 37 34 34 35 30 33 31 31 29 29 31 30 31 27 24 24
22 22 22 21 21 22 23 23 23 24 23 24 24 24 23 23 22 20 20 22 18 17 24 34 39 44 42 41 38 37 39 35 34 36 34 36 35 34 34 35 30 29 28
22 22 22 21 20 20 20 22 22 22 23 23 23 24 24 23 21 20 20 20 21 23 19 25 32 38 42 42 40 39 37 39 42 38 37 35 37 40 35 38 37 36 33
23 22 21 21 20 20 20 21 22 22 22 21 21 24 25 25 25 24 23 20 19 22 21 20 25 30 38 42 40 48 42 41 35 40 38 37 40 40 40 38 40 41 37
24 23 22 21 21 20 20 20 20 21 21 21 21 21 24 25 25 26 26 25 24 22 22 27 29 25 27 40 45 44 43 41 40 38 38 35 39 41 42 43 43 44 39
22 22 22 22 21 20 20 20 20 20 20 20 21 22 24 26 26 25 26 28 29 28 27 26 24 29 30 29 39 45 46 45 42 41 40 41 40 38 39 43 45 47 40
20 20 20 20 20 19 19 19 19 19 19 20 20 21 22 23 25 27 27 29 29 30 31 31 29 25 26 29 30 38 43 44 43 39 39 42 43 41 41 39 47 46 43
20 21 21 21 20 19 19 19 19 19 20 20 20 20 21 21 22 23 25 27 28 30 31 32 33 31 31 27 27 31 36 40 39 40 44 45 48 43 39 43 46 46 41
22 22 22 22 21 21 21 21 21 21 21 21 21 22 22 23 23 24 24 25 26 27 29 31 32 34 35 34 31 28 28 35 41 45 44 46 46 44 43 41 43 45 43
Wind_Direction
243 257 273 295 306 322 327 329 326 321 335 344 360 353 1 358 192 214 162 134 127 154 160 164 161 163 148 158 162 160 193 146 181 189 182 179 187 184 208 210 255 275 294
246 259 274 287 299 309 311 314 314 311 314 324 326 344 348 339 192 181 195 189 173 166 167 172 177 171 175 188 162 193 195 164 195 193 209 201 201 209 227 244 268 281 282
254 264 275 282 285 293 298 304 304 306 296 305 304 307 346 353 182 182 192 205 207 193 198 185 184 187 195 191 184 207 221 189 195 201 205 211 223 239 249 251 256 262 278
260 263 268 272 276 283 287 289 295 296 289 285 287 279 294 326 180 191 192 207 214 204 208 210 193 197 199 190 192 190 192 194 192 189 207 212 205 224 234 243 262 258 268
255 259 259 260 265 271 278 282 287 287 291 282 277 267 255 253 199 194 208 201 222 212 192 194 178 174 186 185 206 219 231 205 210 203 200 224 220 221 235 250 247 255 274
260 258 262 265 262 264 272 278 280 278 280 278 277 269 257 257 209 211 206 214 206 215 206 181 189 187 194 208 208 220 250 250 262 237 213 216 230 222 225 248 252 258 275
262 259 258 260 258 258 263 270 272 276 271 273 270 267 262 257 249 244 226 213 227 216 213 212 210 217 224 219 220 222 228 257 230 213 221 226 231 242 233 233 263 259 268
262 261 260 257 258 255 257 261 269 275 274 271 273 266 257 256 253 236 198 215 210 229 223 218 217 218 222 230 230 245 248 232 164 156 166 178 174 191 213 230 247 251 240
261 262 260 258 253 254 253 253 256 261 270 268 272 270 261 252 256 230 223 209 216 231 233 233 210 212 224 225 229 242 195 176 185 176 204 201 198 215 228 264 257 253 232
264 261 255 253 252 250 251 253 257 264 271 268 262 277 258 252 259 246 226 223 214 226 233 202 217 212 211 220 227 194 185 201 204 221 213 233 245 231 251 241 239 242 225
265 258 250 249 248 248 250 250 256 269 286 285 273 250 248 247 247 255 235 241 233 237 227 214 217 215 217 211 186 182 191 219 213 218 225 245 237 236 255 244 241 236 229
244 244 238 231 235 241 248 245 248 251 264 260 270 275 260 252 235 258 254 237 221 217 208 206 204 195 189 185 188 194 210 217 226 225 235 238 242 240 244 240 234 231 231
245 248 245 251 250 248 253 263 271 273 277 267 270 270 253 236 225 229 256 244 232 206 195 187 187 186 188 195 199 208 219 221 224 219 227 232 236 235 234 231 230 231 234
252 259 262 262 260 255 258 257 257 256 271 278 266 264 278 257 221 217 234 235 240 215 202 202 206 204 207 220 212 225 227 226 236 229 227 240 251 250 242 237 235 235 237
264 269 269 268 267 266 265 268 265 261 264 270 282 265 269 256 248 245 219 234 233 237 216 212 212 214 215 220 215 225 232 228 240 236 236 244 252 254 250 245 240 239 244
276 276 275 275 274 273 271 270 271 271 271 269 272 272 272 274 269 272 264 240 230 230 237 231 225 226 229 227 228 225 241 236 234 241 238 241 249 243 249 249 247 248 246
276 277 279 277 273 271 270 272 268 265 266 267 265 265 262 259 264 271 263 254 245 235 234 236 240 238 238 241 234 239 251 238 243 240 251 243 249 245 244 253 254 249 247
287 286 283 280 279 277 272 269 269 267 261 261 262 264 263 262 262 260 263 267 255 247 240 242 246 248 246 246 244 244 246 241 246 245 253 258 251 251 247 251 249 254 253
293 288 284 280 276 274 274 272 269 268 265 261 260 257 258 261 266 268 267 260 257 277 257 246 244 246 250 251 249 248 249 251 248 252 253 252 254 260 254 251 250 250 253
293 289 286 283 278 275 273 272 273 269 268 266 260 257 255 255 260 262 262 263 260 258 261 258 248 250 244 248 249 244 247 252 258 255 255 254 251 252 248 249 248 252 252
296 292 288 285 281 276 274 271 271 270 270 268 266 261 257 257 256 258 260 265 264 257 252 258 257 254 242 244 251 254 252 249 248 252 258 255 253 248 243 251 247 248 249
291 290 287 283 282 280 276 273 269 269 268 268 264 264 266 264 261 259 258 260 260 260 262 260 255 261 264 253 251 253 255 249 248 249 253 259 257 253 251 243 242 246 247
287 284 283 283 282 280 277 276 275 273 271 269 266 263 262 265 267 265 263 260 258 258 261 263 272 260 260 266 250 247 251 250 249 248 254 254 256 254 251 248 245 244 246
285 281 279 278 278 279 279 278 277 277 276 274 272 269 266 265 266 268 268 265 263 261 259 261 263 272 267 268 264 252 249 243 242 249 253 249 251 249 249 254 244 242 248
282 280 278 277 277 278 279 279 279 279 279 279 278 277 276 274 273 272 271 270 269 267 264 263 262 262 266 272 272 263 250 248 244 253 253 253 247 245 251 248 252 245 244
278 277 277 277 278 278 278 278 278 277 277 277 277 278 278 279 279 277 275 275 275 273 271 268 265 262 260 263 267 269 270 255 252 256 256 255 247 247 247 245 245 240 245
Height
3081 3081 3083 3082 3082 3082 3081 3079 3079 3077 3076 3075 3074 3073 3071 3071 3070 3070 3070 3070 3072 3074 3075 3078 3081 3085 3088 3092 3094 3096 3099 3101 3103 3105 3109 3111 3114 3116 3119 3121 3122 3123 3124
3078 3079 3080 3080 3080 3079 3079 3077 3076 3075 3074 3073 3073 3072 3071 3069 3069 3070 3072 3072 3072 3075 3077 3079 3083 3086 3089 3092 3094 3096 3098 3102 3105 3108 3109 3111 3114 3116 3118 3119 3121 3121 3121
3075 3076 3077 3077 3077 3076 3076 3076 3074 3073 3072 3071 3071 3071 3070 3068 3068 3069 3072 3074 3074 3075 3078 3080 3083 3086 3088 3092 3094 3095 3098 3101 3104 3107 3110 3112 3114 3115 3117 3118 3119 3119 3119
3070 3072 3073 3073 3073 3073 3073 3074 3072 3071 3070 3070 3069 3069 3070 3069 3068 3069 3069 3073 3074 3074 3076 3078 3080 3084 3089 3091 3093 3097 3099 3101 3104 3106 3107 3110 3112 3113 3115 3117 3118 3117 3118
3065 3066 3067 3067 3068 3069 3070 3071 3070 3069 3068 3068 3067 3067 3068 3069 3069 3068 3069 3070 3072 3074 3075 3077 3079 3083 3087 3091 3094 3096 3098 3100 3102 3104 3106 3108 3111 3112 3114 3115 3115 3116 3116
3061 3062 3062 3063 3064 3065 3066 3067 3068 3067 3066 3066 3066 3065 3065 3066 3068 3068 3068 3070 3071 3073 3076 3077 3080 3082 3086 3088 3091 3093 3096 3097 3098 3101 3103 3107 3108 3110 3111 3112 3114 3114 3114
3056 3056 3057 3058 3059 3060 3061 3063 3063 3063 3063 3063 3062 3062 3063 3063 3063 3065 3067 3068 3070 3070 3072 3075 3077 3081 3084 3087 3089 3091 3093 3094 3096 3098 3101 3104 3106 3108 3109 3110 3111 3111 3111
3049 3050 3051 3053 3054 3056 3057 3058 3059 3060 3060 3060 3060 3060 3060 3061 3060 3061 3063 3066 3068 3069 3070 3072 3074 3077 3081 3084 3087 3090 3091 3092 3094 3095 3098 3101 3103 3105 3107 3108 3108 3109 3110
3043 3043 3045 3047 3048 3050 3051 3053 3054 3054 3055 3056 3056 3057 3057 3058 3058 3058 3059 3062 3064 3066 3067 3067 3071 3074 3078 3080 3083 3087 3089 3091 3094 3096 3098 3100 3101 3103 3105 3106 3106 3106 3107
3037 3038 3039 3041 3043 3044 3046 3048 3050 3050 3051 3052 3052 3053 3054 3055 3056 3055 3056 3058 3061 3063 3064 3066 3068 3072 3074 3078 3080 3083 3087 3090 3093 3095 3096 3098 3099 3100 3101 3102 3103 3104 3106
3034 3034 3035 3036 3038 3040 3042 3044 3046 3047 3047 3049 3049 3048 3050 3050 3053 3055 3054 3054 3057 3058 3060 3063 3066 3068 3071 3074 3080 3083 3085 3087 3089 3091 3093 3094 3095 3097 3098 3099 3100 3102 3103
3032 3033 3033 3034 3035 3036 3038 3039 3041 3042 3043 3045 3046 3047 3047 3048 3049 3050 3052 3052 3053 3055 3057 3060 3063 3065 3068 3072 3077 3080 3083 3084 3086 3088 3089 3091 3092 3093 3094 3095 3097 3098 3100
3029 3030 3031 3032 3033 3034 3035 3036 3038 3038 3039 3039 3040 3040 3039 3042 3045 3045 3048 3051 3052 3054 3054 3056 3060 3064 3067 3071 3074 3076 3078 3081 3083 3085 3087 3088 3088 3089 3089 3091 3093 3095 3097
3027 3028 3029 3029 3030 3031 3032 3033 3034 3034 3034 3035 3035 3036 3037 3037 3038 3041 3044 3046 3049 3050 3052 3055 3057 3061 3064 3067 3069 3072 3074 3076 3078 3081 3082 3084 3085 3085 3086 3088 3089 3091 3093
3023 3024 3024 3024 3026 3027 3028 3028 3029 3029 3030 3030 3031 3031 3033 3035 3037 3037 3039 3041 3043 3045 3047 3048 3051 3054 3057 3060 3063 3066 3069 3070 3073 3075 3077 3079 3080 3081 3083 3084 3085 3086 3089
3017 3017 3018 3018 3019 3020 3022 3023 3024 3024 3025 3026 3026 3027 3028 3029 3030 3032 3032 3035 3036 3038 3040 3043 3045 3048 3050 3053 3057 3060 3062 3064 3067 3069 3071 3073 3075 3077 3078 3079 3080 3082 3084
3011 3011 3012 3012 3012 3013 3013 3014 3016 3018 3019 3020 3021 3022 3023 3024 3024 3025 3026 3026 3028 3031 3033 3035 3038 3041 3044 3047 3049 3052 3055 3058 3060 3062 3064 3066 3068 3070 3072 3074 3074 3075 3077
3004 3004 3004 3004 3004 3004 3005 3006 3007 3008 3010 3012 3013 3014 3015 3016 3017 3017 3018 3019 3021 3023 3026 3029 3031 3034 3036 3039 3041 3044 3047 3049 3052 3055 3057 3058 3060 3062 3064 3066 3068 3069 3070
2997 2997 2996 2996 2996 2997 2997 2997 2999 3000 3002 3003 3005 3006 3007 3009 3010 3010 3011 3012 3013 3015 3015 3018 3022 3025 3027 3030 3032 3035 3037 3040 3042 3045 3047 3049 3052 3053 3055 3057 3059 3061 3062
2990 2990 2989 2989 2989 2989 2990 2990 2991 2992 2993 2995 2996 2997 2998 3001 3002 3003 3004 3005 3005 3006 3007 3009 3011 3014 3016 3019 3021 3024 3026 3030 3032 3034 3036 3038 3041 3043 3045 3047 3050 3051 3054
2983 2983 2983 2982 2983 2983 2983 2983 2984 2985 2986 2987 2988 2989 2990 2992 2994 2995 2996 2997 2997 2998 2998 3000 3001 3003 3005 3007 3010 3013 3016 3019 3021 3024 3026 3027 3030 3032 3034 3037 3039 3041 3044
2977 2977 2977 2977 2976 2977 2977 2977 2978 2978 2979 2980 2981 2981 2982 2984 2986 2987 2988 2989 2990 2991 2991 2992 2993 2994 2994 2995 2997 3001 3005 3008 3010 3013 3015 3017 3018 3020 3022 3025 3027 3030 3033
2971 2971 2970 2970 2970 2971 2971 2971 2971 2972 2972 2973 2974 2974 2975 2976 2977 2978 2979 2980 2982 2983 2984 2984 2984 2984 2985 2985 2986 2988 2991 2996 3000 3001 3003 3005 3007 3009 3011 3014 3016 3018 3022
2965 2965 2965 2965 2964 2965 2965 2965 2965 2965 2965 2966 2966 2967 2967 2968 2968 2969 2970 2970 2971 2973 2974 2975 2975 2975 2975 2975 2975 2976 2978 2982 2985 2988 2990 2992 2994 2997 2999 3001 3004 3007 3011
2958 2958 2959 2959 2959 2959 2959 2958 2958 2959 2959 2959 2959 2959 2960 2960 2961 2961 2961 2962 2962 2962 2963 2964 2964 2965 2966 2966 2966 2966 2967 2969 2971 2975 2977 2979 2981 2984 2986 2989 2992 2995 2999
2951 2951 2952 2952 2952 2952 2952 2952 2952 2952 2952 2952 2952 2952 2952 2952 2953 2953 2953 2953 2952 2953 2953 2953 2954 2955 2955 2956 2957 2958 2957 2958 2959 2961 2965 2966 2969 2971 2974 2977 2980 2983 2986